[[{"header":{"parameterUnit":"m.s-1","parameterCategory":1,"la1":30.2991,"la2":30.254,"lo1":-89.0895,"lo2":-89.0444,"dy":0.0017,"dx":0.0017,"nx":28,"ny":28,"refTime":"2024-04-12T03:00:00:Z","depth":0,"parameterNumber":2,"parameterNumberName":"U-component_of_WINDS"},"data":[0,0,0,0,0,0,0,0,0,0,0,0,0,0,0,0,0,0,0,0,0,0,0,0,0,0,0,0,0,0,0,0,0,0,0,0,0,0,0,0,0,0,0,0,0,0,0,0,0,0,0,0,0,0,0,0,0,0,-0.6319,-0.6319,0,-0.6359,-0.6359,-0.636,-0.6325,-0.6323,-0.6322,-0.632,-0.6363,-0.6365,-0.6368,0,0,0,0,0,0,0,0,0,0,0,0,0,-0.6213,-0.6215,-0.6319,-0.6319,-0.632,-0.6359,-0.6359,-0.636,-0.6325,-0.6323,-0.6321,-0.632,-0.6362,-0.6365,-0.6368,0,0,0,0,0,0,0,0,0,0,0,0,0,-0.6257,-0.6216,-0.6319,-0.6307,-0.6306,-0.6359,-0.6359,-0.636,-0.6325,-0.6323,-0.6321,-0.6319,-0.6361,-0.6365,-0.6369,-0.6435,0,0,-0.638,-0.6382,0,0,0,0,0,0,0,0,-0.6254,-0.6261,-0.6308,-0.6308,-0.6307,-0.6334,-0.6338,-0.6385,-0.6326,-0.6318,-0.632,-0.6318,-0.6355,-0.6359,-0.6372,-0.6437,-0.6439,-0.638,-0.6383,-0.6384,-0.6385,0,0,0,0,0,0,0,-0.6251,-0.6259,-0.6335,-0.6309,-0.6308,-0.63,-0.6304,-0.6347,-0.6349,-0.6319,-0.6316,-0.6321,-0.6355,-0.6368,-0.6373,-0.644,-0.638,-0.6383,-0.6386,-0.6387,-0.6562,-0.6564,0,0,0,0,0,0,-0.6249,-0.6256,-0.6333,-0.6336,-0.6275,-0.6304,-0.6308,-0.6328,-0.6348,-0.6349,-0.6323,-0.6319,-0.6363,-0.6368,-0.6374,-0.6454,-0.6384,-0.6388,-0.639,-0.6559,-0.6562,-0.6565,0,0,0,0,0,0,-0.6247,-0.6256,-0.6332,-0.6295,-0.6304,-0.6308,-0.6331,-0.633,-0.6343,-0.6351,-0.6352,-0.6337,-0.6361,-0.6369,-0.642,-0.6455,-0.6389,-0.6393,-0.6557,-0.656,-0.6564,-0.6614,0,0,0,0,0,0,-0.6244,-0.6256,-0.6281,-0.6296,-0.6306,-0.6377,-0.6333,-0.6332,-0.635,-0.6345,-0.6364,-0.6365,-0.636,-0.6415,-0.6424,-0.6459,-0.6396,-0.6554,-0.6558,-0.6562,-0.6609,-0.6619,-0.6627,0,0,0,0,0,-0.6241,-0.6294,-0.6283,-0.6292,-0.6338,-0.6379,-0.6385,-0.6378,-0.6353,-0.6378,-0.6383,-0.6364,-0.6449,-0.642,-0.643,-0.6467,-0.6551,-0.6557,-0.6562,-0.6605,-0.6617,-0.6627,0,0,0,0,0,0,-0.6284,-0.6296,-0.6283,-0.6343,-0.636,-0.6373,-0.6405,-0.6391,-0.6416,-0.6411,-0.6402,-0.6406,-0.6461,-0.6468,-0.6436,-0.6532,-0.6496,-0.6504,-0.6526,-0.6537,-0.6546,-0.6544,-0.6399,0,0,0,0,0,-0.63,-0.6332,-0.6341,-0.6393,-0.6402,-0.6402,-0.642,-0.6413,-0.6431,-0.6438,-0.6447,-0.6465,-0.6496,-0.6516,-0.6545,-0.661,-0.6614,-0.664,-0.6648,-0.6656,-0.6663,-0.6699,-0.671,-0.6583,-0.6583,-0.6582,0,0,-0.6334,-0.6345,-0.6366,-0.6402,-0.6414,-0.6449,-0.6409,-0.6446,-0.6472,-0.6444,-0.6493,-0.65,-0.652,-0.6578,-0.6605,-0.6587,-0.6699,-0.6663,-0.6668,-0.6672,-0.6705,-0.6717,-0.6728,-0.6586,-0.6586,-0.6585,0,0,-0.6415,-0.6426,-0.647,-0.6484,-0.6503,-0.6502,-0.6513,-0.6528,-0.6531,-0.658,-0.656,-0.659,-0.6643,-0.6658,-0.6673,-0.6758,-0.6742,-0.6767,-0.6815,-0.6849,-0.6859,-0.6868,-0.69,-0.6911,-0.6774,-0.6774,-0.6774,0,-0.6456,-0.6506,-0.6496,-0.6535,-0.6551,-0.6526,-0.6572,-0.6585,-0.6613,-0.6626,-0.6605,-0.6671,-0.6682,-0.6744,-0.6765,-0.6777,-0.679,-0.6766,-0.6858,-0.6867,-0.6876,-0.6906,-0.6917,-0.6777,-0.6777,-0.6777,-0.6776,0,-0.6556,-0.6591,-0.6624,-0.6652,-0.6672,-0.6714,-0.671,-0.6732,-0.6723,-0.6725,-0.6775,-0.6787,-0.6819,-0.6832,-0.6824,-0.6893,-0.6882,-0.686,-0.6823,-0.6891,-0.6919,-0.6931,-0.6782,-0.6781,-0.678,-0.6779,0,0,-0.6667,-0.6686,-0.6699,-0.6711,-0.673,-0.6757,-0.6798,-0.6828,-0.6847,-0.6866,-0.6901,-0.6946,-0.6926,-0.6942,-0.6935,-0.6965,-0.7033,-0.6939,-0.694,-0.6958,-0.7111,-0.7129,-0.7142,-0.7021,-0.7023,-0.7025,-0.711,0,-0.6749,-0.682,-0.6812,-0.688,-0.6913,-0.6889,-0.6924,-0.694,-0.6942,-0.697,-0.6973,-0.7005,-0.6976,-0.6986,-0.7014,-0.7019,-0.7064,-0.7012,-0.7055,-0.7057,-0.7053,-0.7157,-0.7176,-0.7255,-0.7121,-0.7123,-0.7124,0,-0.6855,-0.6878,-0.695,-0.6963,-0.6977,-0.7009,-0.7036,-0.7062,-0.7079,-0.7079,-0.7097,-0.7084,-0.7126,-0.7087,-0.7144,-0.7109,-0.7126,-0.713,-0.7133,-0.7139,-0.7096,-0.7167,-0.7281,-0.7293,-0.7141,-0.714,-0.7138,0,-0.6931,-0.698,-0.7029,-0.704,-0.7056,-0.708,-0.7088,-0.7102,-0.7121,-0.7144,-0.7156,-0.7183,-0.7199,-0.722,-0.7215,-0.7187,-0.7274,-0.7235,-0.7276,-0.7277,-0.7298,-0.7297,-0.7418,-0.7305,-0.7305,-0.7305,-0.7304,0,-0.7025,-0.7071,-0.7063,-0.7094,-0.7144,-0.7133,-0.7182,-0.7187,-0.72,-0.7232,-0.7212,-0.7242,-0.7233,-0.7262,-0.7258,-0.7307,-0.7314,-0.7315,-0.7314,-0.7318,-0.7318,-0.733,-0.7326,-0.7308,-0.7307,-0.7306,-0.7306,0,-0.712,-0.7116,-0.7169,-0.718,-0.7183,-0.722,-0.7229,-0.7258,-0.7258,-0.7298,-0.7307,-0.7307,-0.7341,-0.7337,-0.7375,-0.7372,-0.7433,-0.7424,-0.7428,-0.7426,-0.7468,-0.7465,-0.7603,-0.7621,-0.7495,-0.7496,-0.7497,0,-0.7181,-0.7215,-0.723,-0.7249,-0.7259,-0.729,-0.7308,-0.7298,-0.7318,-0.734,-0.7366,-0.7398,-0.7423,-0.7477,-0.7482,-0.751,-0.7503,-0.7549,-0.7507,-0.7511,-0.7506,-0.7505,-0.7508,-0.7558,-0.756,-0.7561,-0.7562,0,-0.7291,-0.7288,-0.7315,-0.7341,-0.7364,-0.7384,-0.7403,-0.7419,-0.7411,-0.7435,-0.7469,-0.7488,-0.7526,-0.7558,-0.7585,-0.7593,-0.7577,-0.7574,-0.7586,-0.7592,-0.7593,-0.7594,-0.7452,-0.7572,-0.7571,-0.757,-0.757,-0.7569,-0.7372,-0.7402,-0.7416,-0.7447,-0.746,-0.7477,-0.7505,-0.7508,-0.7536,-0.7566,-0.7558,-0.7596,-0.7612,-0.7646,-0.7657,-0.7687,-0.7671,-0.7687,-0.7691,-0.7696,-0.7702,-0.7586,-0.7692,-0.7692,-0.7691,-0.7691,-0.7691,0,-0.7483,-0.749,-0.7519,-0.7545,-0.7569,-0.755,-0.7569,-0.7591,-0.7625,-0.7641,-0.7665,-0.7704,-0.7734,-0.774,-0.7769,-0.7792,-0.7786,-0.78,-0.78,-0.7802,-0.7714,-0.7702,-0.7805,-0.7805,-0.7805,-0.7805,-0.7805,-0.7805,-0.7543,-0.7592,-0.759,-0.7645,-0.7652,-0.769,-0.7703,-0.7719,-0.7731,-0.7775,-0.78,-0.7803,-0.7815,-0.7845,-0.7872,-0.7872,-0.7885,-0.7903,-0.7901,-0.782,-0.7808,-0.7797,-0.7786,-0.7906,-0.7906,-0.7987,-0.7988,-0.7989]},{"header":{"parameterUnit":"m.s-1","parameterCategory":1,"la1":30.2991,"la2":30.254,"lo1":-89.0895,"lo2":-89.0444,"dy":0.0017,"dx":0.0017,"nx":28,"ny":28,"refTime":"2024-04-12T03:00:00:Z","depth":0,"parameterNumber":3,"parameterNumberName":"V-component_of_WINDS"},"data":[0,0,0,0,0,0,0,0,0,0,0,0,0,0,0,0,0,0,0,0,0,0,0,0,0,0,0,0,0,0,0,0,0,0,0,0,0,0,0,0,0,0,0,0,0,0,0,0,0,0,0,0,0,0,0,0,0,0,-3.0515,-3.0517,0,-3.0662,-3.0664,-3.0665,-3.0652,-3.065,-3.0648,-3.0645,-3.0793,-3.0799,-3.0804,0,0,0,0,0,0,0,0,0,0,0,0,0,-3.0221,-3.0226,-3.0515,-3.0517,-3.0519,-3.0662,-3.0664,-3.0666,-3.0652,-3.065,-3.0647,-3.0644,-3.0791,-3.0798,-3.0805,0,0,0,0,0,0,0,0,0,0,0,0,0,-3.0356,-3.0228,-3.0515,-3.0529,-3.0532,-3.0661,-3.0664,-3.0666,-3.0653,-3.065,-3.0646,-3.0643,-3.0788,-3.0797,-3.0806,-3.0929,0,0,-3.0834,-3.0837,0,0,0,0,0,0,0,0,-3.0349,-3.0367,-3.0525,-3.0529,-3.0532,-3.0635,-3.0614,-3.0754,-3.0654,-3.0607,-3.0645,-3.0642,-3.0743,-3.0755,-3.079,-3.0936,-3.0942,-3.0834,-3.084,-3.0844,-3.0846,0,0,0,0,0,0,0,-3.0339,-3.0361,-3.0573,-3.0528,-3.0532,-3.0528,-3.0543,-3.0641,-3.0692,-3.0611,-3.061,-3.0628,-3.0744,-3.0782,-3.0794,-3.0944,-3.0834,-3.0842,-3.0848,-3.0851,-3.12,-3.1203,0,0,0,0,0,0,-3.0327,-3.0353,-3.0568,-3.0577,-3.043,-3.0536,-3.0553,-3.0605,-3.0691,-3.0701,-3.0631,-3.0627,-3.0768,-3.0783,-3.0799,-3.095,-3.0844,-3.0852,-3.0857,-3.1196,-3.1201,-3.1205,0,0,0,0,0,0,-3.0321,-3.0346,-3.0562,-3.0465,-3.0492,-3.0545,-3.0603,-3.061,-3.0648,-3.0706,-3.0715,-3.066,-3.0766,-3.0786,-3.0897,-3.0954,-3.0856,-3.0864,-3.1191,-3.1197,-3.1203,-3.1251,0,0,0,0,0,0,-3.0312,-3.0344,-3.0392,-3.0466,-3.0498,-3.0659,-3.0607,-3.0615,-3.0664,-3.066,-3.0736,-3.0745,-3.0765,-3.0884,-3.0906,-3.0965,-3.0871,-3.1186,-3.1194,-3.1201,-3.1245,-3.1258,-3.1269,0,0,0,0,0,-3.0302,-3.0398,-3.0394,-3.042,-3.0559,-3.0663,-3.068,-3.0702,-3.0668,-3.0717,-3.0754,-3.0742,-3.0944,-3.0895,-3.092,-3.0983,-3.1183,-3.1192,-3.12,-3.1239,-3.1256,-3.1269,0,0,0,0,0,0,-3.0328,-3.0408,-3.0405,-3.0529,-3.0589,-3.066,-3.0722,-3.0718,-3.0789,-3.0782,-3.0805,-3.0822,-3.0935,-3.097,-3.0914,-3.1107,-3.1059,-3.1073,-3.108,-3.1096,-3.1108,-3.1098,-3.0879,0,0,0,0,0,-3.0348,-3.0427,-3.0493,-3.0596,-3.0626,-3.0669,-3.0715,-3.0727,-3.079,-3.0815,-3.0861,-3.0922,-3.0999,-3.1049,-3.1123,-3.125,-3.1266,-3.1305,-3.1317,-3.1327,-3.1339,-3.141,-3.1428,-3.1233,-3.1233,-3.1233,0,0,-3.039,-3.0444,-3.0492,-3.0602,-3.065,-3.0731,-3.069,-3.0777,-3.0837,-3.0828,-3.0936,-3.0972,-3.1041,-3.1161,-3.1216,-3.1194,-3.1397,-3.1338,-3.1345,-3.1352,-3.142,-3.1439,-3.1455,-3.1239,-3.1238,-3.1237,0,0,-3.0509,-3.0558,-3.065,-3.0699,-3.0773,-3.0801,-3.0823,-3.0896,-3.092,-3.1029,-3.1025,-3.1096,-3.1228,-3.1278,-3.1321,-3.1461,-3.1453,-3.1484,-3.1548,-3.1617,-3.1632,-3.1646,-3.1697,-3.1715,-3.1496,-3.1496,-3.1496,0,-3.0552,-3.0674,-3.0697,-3.0785,-3.0834,-3.0831,-3.0924,-3.0971,-3.1065,-3.1099,-3.1072,-3.124,-3.1286,-3.1418,-3.1453,-3.1487,-3.1513,-3.1476,-3.1628,-3.1642,-3.1655,-3.1704,-3.1723,-3.1499,-3.1499,-3.1499,-3.1498,0,-3.0724,-3.0809,-3.0874,-3.0967,-3.1023,-3.1113,-3.1149,-3.1203,-3.121,-3.1241,-3.1353,-3.1409,-3.1495,-3.1527,-3.1534,-3.1661,-3.1645,-3.1623,-3.1576,-3.1677,-3.1723,-3.1742,-3.1504,-3.1503,-3.1502,-3.1501,0,0,-3.0863,-3.0969,-3.0992,-3.1035,-3.1117,-3.1183,-3.1273,-3.1359,-3.1405,-3.147,-3.1547,-3.1659,-3.1641,-3.1689,-3.1702,-3.1762,-3.1871,-3.1734,-3.1735,-3.1758,-3.2015,-3.2031,-3.2053,-3.1866,-3.1869,-3.1872,-3.2009,0,-3.0991,-3.1152,-3.1176,-3.1317,-3.1397,-3.1395,-3.1474,-3.1533,-3.1564,-3.1635,-3.1669,-3.1749,-3.1718,-3.1747,-3.1807,-3.1845,-3.1923,-3.1835,-3.1937,-3.1941,-3.1921,-3.2077,-3.2094,-3.2221,-3.2028,-3.2031,-3.2033,0,-3.1161,-3.1233,-3.1384,-3.1457,-3.1491,-3.1561,-3.1643,-3.1711,-3.1777,-3.1796,-3.1851,-3.1857,-3.195,-3.1898,-3.2027,-3.1967,-3.201,-3.2036,-3.2041,-3.2052,-3.1993,-3.2092,-3.2261,-3.2281,-3.2061,-3.2059,-3.2057,0,-3.1249,-3.1383,-3.1491,-3.1527,-3.1615,-3.1665,-3.1703,-3.1767,-3.1817,-3.1888,-3.1921,-3.2001,-3.2045,-3.2106,-3.2133,-3.2093,-3.2261,-3.2211,-3.2279,-3.2279,-3.2315,-3.2313,-3.2494,-3.2342,-3.2341,-3.2341,-3.234,0,-3.139,-3.1482,-3.1532,-3.1598,-3.1702,-3.1727,-3.1829,-3.1866,-3.1923,-3.1996,-3.1999,-3.2067,-3.2099,-3.2172,-3.2193,-3.2298,-3.2317,-3.2335,-3.2339,-3.2335,-3.2333,-3.2364,-3.2356,-3.2346,-3.2345,-3.2344,-3.2343,0,-3.1505,-3.1542,-3.166,-3.1734,-3.1754,-3.1828,-3.189,-3.1955,-3.1986,-3.2079,-3.2102,-3.215,-3.2237,-3.227,-3.2375,-3.2389,-3.251,-3.2507,-3.2488,-3.249,-3.2556,-3.255,-3.2765,-3.2795,-3.2621,-3.2623,-3.2624,0,-3.1593,-3.1664,-3.1747,-3.1797,-3.1838,-3.1918,-3.197,-3.1998,-3.2052,-3.2134,-3.2189,-3.2276,-3.2346,-3.2485,-3.2529,-3.261,-3.2609,-3.2679,-3.2621,-3.2615,-3.2612,-3.2607,-3.2615,-3.269,-3.2692,-3.2693,-3.2694,0,-3.1746,-3.1761,-3.1836,-3.1919,-3.1982,-3.2048,-3.2112,-3.2153,-3.2191,-3.2251,-3.2341,-3.2396,-3.2504,-3.2591,-3.2674,-3.2713,-3.271,-3.2712,-3.2732,-3.2729,-3.2715,-3.2725,-3.2519,-3.2707,-3.2706,-3.2705,-3.2704,-3.2704,-3.1851,-3.1915,-3.1983,-3.2068,-3.2119,-3.218,-3.2244,-3.2284,-3.236,-3.2451,-3.2463,-3.2559,-3.2625,-3.2737,-3.2779,-3.2855,-3.2836,-3.2865,-3.2873,-3.288,-3.2885,-3.2703,-3.287,-3.2869,-3.2869,-3.2869,-3.2869,0,-3.2004,-3.2049,-3.2126,-3.2217,-3.2284,-3.2277,-3.2348,-3.2404,-3.2489,-3.2551,-3.2622,-3.2725,-3.2809,-3.286,-3.2944,-3.2995,-3.2996,-3.3016,-3.3013,-3.3022,-3.2896,-3.2871,-3.3014,-3.3014,-3.3014,-3.3014,-3.3014,-3.3014,-3.2092,-3.2201,-3.2224,-3.2358,-3.2402,-3.2497,-3.2539,-3.2594,-3.2644,-3.276,-3.283,-3.2864,-3.2922,-3.3011,-3.3087,-3.31,-3.3131,-3.3154,-3.3165,-3.3046,-3.3031,-3.3017,-3.2993,-3.316,-3.316,-3.3285,-3.3286,-3.3287]}]]